TimePDT,TemperatureF,Dew PointF,Humidity,Sea Level PressureIn,VisibilityMPH,Wind Direction,Wind SpeedMPH,Gust SpeedMPH,PrecipitationIn,Events,Conditions,WindDirDegrees,DateUTC
12:15 AM,-9999,-9999,N/A,29.91,10.0,Calm,Calm,-,N/A,,Overcast,0,2013-09-02 07:15:00
12:35 AM,-9999,-9999,N/A,29.91,10.0,Calm,Calm,-,N/A,,Overcast,0,2013-09-02 07:35:00
12:55 AM,-9999,-9999,N/A,29.91,10.0,Calm,Calm,-,N/A,,Mostly Cloudy,0,2013-09-02 07:55:00
1:15 AM,-9999,-9999,N/A,29.90,10.0,Calm,Calm,-,N/A,,Partly Cloudy,0,2013-09-02 08:15:00
1:35 AM,-9999,-9999,N/A,29.91,10.0,Calm,Calm,-,N/A,,Partly Cloudy,0,2013-09-02 08:35:00
1:55 AM,-9999,-9999,N/A,29.92,10.0,Calm,Calm,-,N/A,,Clear,0,2013-09-02 08:55:00
2:15 AM,-9999,-9999,N/A,29.91,10.0,Calm,Calm,-,N/A,,Scattered Clouds,0,2013-09-02 09:15:00
2:35 AM,-9999,-9999,N/A,29.91,10.0,Calm,Calm,-,N/A,,Mostly Cloudy,0,2013-09-02 09:35:00
2:55 AM,-9999,-9999,N/A,29.92,10.0,Calm,Calm,-,N/A,,Mostly Cloudy,0,2013-09-02 09:55:00
3:15 AM,-9999,-9999,N/A,29.92,10.0,Calm,Calm,-,N/A,,Mostly Cloudy,0,2013-09-02 10:15:00
3:35 AM,-9999,-9999,N/A,29.92,10.0,Calm,Calm,-,N/A,,Overcast,0,2013-09-02 10:35:00
3:55 AM,-9999,-9999,N/A,29.92,10.0,Calm,Calm,-,N/A,,Mostly Cloudy,0,2013-09-02 10:55:00
4:15 AM,-9999,-9999,N/A,29.92,10.0,Calm,Calm,-,N/A,,Overcast,0,2013-09-02 11:15:00
4:35 AM,-9999,-9999,N/A,29.92,10.0,Calm,Calm,-,N/A,,Overcast,0,2013-09-02 11:35:00
4:55 AM,-9999,-9999,N/A,29.91,10.0,Calm,Calm,-,N/A,,Overcast,0,2013-09-02 11:55:00
5:15 AM,-9999,-9999,N/A,29.91,10.0,Calm,Calm,-,N/A,,Overcast,0,2013-09-02 12:15:00
5:35 AM,-9999,-9999,N/A,29.91,10.0,Calm,Calm,-,N/A,,Overcast,0,2013-09-02 12:35:00
5:55 AM,-9999,-9999,N/A,29.92,10.0,Calm,Calm,-,N/A,,Overcast,0,2013-09-02 12:55:00
6:15 AM,-9999,-9999,N/A,29.92,10.0,SE,3.5,-,N/A,,Overcast,130,2013-09-02 13:15:00
6:35 AM,-9999,-9999,N/A,29.92,10.0,Calm,Calm,-,N/A,,Overcast,0,2013-09-02 13:35:00
6:55 AM,-9999,-9999,N/A,29.91,10.0,Calm,Calm,-,N/A,,Overcast,0,2013-09-02 13:55:00
7:15 AM,-9999,-9999,N/A,29.91,10.0,Calm,Calm,-,N/A,,Overcast,0,2013-09-02 14:15:00
7:35 AM,-9999,-9999,N/A,29.92,10.0,South,3.5,-,N/A,,Mostly Cloudy,170,2013-09-02 14:35:00
7:55 AM,-9999,-9999,N/A,29.92,10.0,Calm,Calm,-,N/A,,Partly Cloudy,0,2013-09-02 14:55:00
8:15 AM,-9999,-9999,N/A,29.92,10.0,Calm,Calm,-,N/A,,Clear,0,2013-09-02 15:15:00
8:35 AM,-9999,-9999,N/A,29.92,10.0,Calm,Calm,-,N/A,,Clear,0,2013-09-02 15:35:00
8:55 AM,-9999,-9999,N/A,29.92,10.0,SSE,3.5,-,N/A,,Partly Cloudy,160,2013-09-02 15:55:00
9:15 AM,-9999,-9999,N/A,29.93,10.0,South,3.5,-,N/A,,Mostly Cloudy,180,2013-09-02 16:15:00
9:35 AM,-9999,-9999,N/A,29.93,10.0,Calm,Calm,-,N/A,,Mostly Cloudy,0,2013-09-02 16:35:00
9:55 AM,-9999,-9999,N/A,29.92,10.0,SSE,4.6,-,N/A,,Overcast,150,2013-09-02 16:55:00
10:15 AM,-9999,-9999,N/A,29.92,10.0,Calm,Calm,-,N/A,,Overcast,0,2013-09-02 17:15:00
10:35 AM,-9999,-9999,N/A,29.92,10.0,SSE,3.5,-,N/A,,Overcast,160,2013-09-02 17:35:00
10:55 AM,-9999,-9999,N/A,29.91,10.0,SE,4.6,-,N/A,,Overcast,130,2013-09-02 17:55:00
11:15 AM,-9999,-9999,N/A,29.91,10.0,South,5.8,-,N/A,,Mostly Cloudy,180,2013-09-02 18:15:00
11:35 AM,-9999,-9999,N/A,29.91,10.0,SE,5.8,-,N/A,,Overcast,140,2013-09-02 18:35:00
11:55 AM,-9999,-9999,N/A,29.91,10.0,South,9.2,-,N/A,,Overcast,180,2013-09-02 18:55:00
12:15 PM,-9999,-9999,N/A,29.92,10.0,South,8.1,-,N/A,,Mostly Cloudy,170,2013-09-02 19:15:00
12:35 PM,-9999,-9999,N/A,29.93,10.0,WSW,11.5,18.4,N/A,,Overcast,240,2013-09-02 19:35:00
12:55 PM,-9999,-9999,N/A,29.94,10.0,West,3.5,-,N/A,,Overcast,260,2013-09-02 19:55:00
1:15 PM,-9999,-9999,N/A,29.94,10.0,WNW,4.6,-,N/A,,Overcast,300,2013-09-02 20:15:00
1:35 PM,-9999,-9999,N/A,29.93,10.0,NW,3.5,-,N/A,,Mostly Cloudy,310,2013-09-02 20:35:00
1:55 PM,-9999,-9999,N/A,29.93,10.0,NNE,4.6,-,N/A,,Scattered Clouds,20,2013-09-02 20:55:00
2:15 PM,-9999,-9999,N/A,29.93,10.0,WSW,3.5,-,N/A,,Scattered Clouds,250,2013-09-02 21:15:00
2:35 PM,-9999,-9999,N/A,29.92,10.0,Calm,Calm,-,N/A,,Mostly Cloudy,0,2013-09-02 21:35:00
2:55 PM,-9999,-9999,N/A,29.92,10.0,WSW,4.6,-,N/A,,Mostly Cloudy,240,2013-09-02 21:55:00
3:15 PM,-9999,-9999,N/A,29.92,10.0,Calm,Calm,-,N/A,,Scattered Clouds,0,2013-09-02 22:15:00
3:35 PM,-9999,-9999,N/A,29.91,10.0,NW,4.6,-,N/A,,Scattered Clouds,310,2013-09-02 22:35:00
3:55 PM,-9999,-9999,N/A,29.91,10.0,West,4.6,-,N/A,,Mostly Cloudy,270,2013-09-02 22:55:00
4:15 PM,-9999,-9999,N/A,29.90,10.0,WSW,4.6,-,N/A,,Mostly Cloudy,250,2013-09-02 23:15:00
4:35 PM,-9999,-9999,N/A,29.90,10.0,Calm,Calm,-,N/A,,Scattered Clouds,0,2013-09-02 23:35:00
4:55 PM,-9999,-9999,N/A,29.90,10.0,Calm,Calm,-,N/A,,Mostly Cloudy,0,2013-09-02 23:55:00
5:15 PM,-9999,-9999,N/A,29.90,10.0,West,3.5,-,N/A,,Scattered Clouds,280,2013-09-03 00:15:00
5:35 PM,-9999,-9999,N/A,29.90,10.0,WNW,3.5,-,N/A,,Mostly Cloudy,300,2013-09-03 00:35:00
5:55 PM,-9999,-9999,N/A,29.90,10.0,West,4.6,-,N/A,,Mostly Cloudy,280,2013-09-03 00:55:00
6:15 PM,-9999,-9999,N/A,29.91,10.0,West,4.6,-,N/A,,Mostly Cloudy,270,2013-09-03 01:15:00
6:35 PM,-9999,-9999,N/A,29.91,10.0,West,3.5,-,N/A,,Scattered Clouds,270,2013-09-03 01:35:00
6:55 PM,-9999,-9999,N/A,29.91,10.0,West,4.6,-,N/A,,Mostly Cloudy,280,2013-09-03 01:55:00
7:15 PM,-9999,-9999,N/A,29.92,10.0,West,3.5,-,N/A,,Mostly Cloudy,270,2013-09-03 02:15:00
7:35 PM,-9999,-9999,N/A,29.92,10.0,Calm,Calm,-,N/A,,Overcast,0,2013-09-03 02:35:00
7:55 PM,-9999,-9999,N/A,29.92,10.0,Calm,Calm,-,N/A,,Overcast,0,2013-09-03 02:55:00
8:15 PM,-9999,-9999,N/A,29.93,10.0,Calm,Calm,-,N/A,,Overcast,0,2013-09-03 03:15:00
8:35 PM,-9999,-9999,N/A,29.94,10.0,Calm,Calm,-,N/A,,Overcast,0,2013-09-03 03:35:00
8:55 PM,-9999,-9999,N/A,29.95,10.0,Calm,Calm,-,N/A,,Overcast,0,2013-09-03 03:55:00
9:15 PM,-9999,-9999,N/A,29.95,10.0,NW,3.5,-,N/A,,Overcast,310,2013-09-03 04:15:00
9:35 PM,-9999,-9999,N/A,29.96,10.0,SW,3.5,-,N/A,,Overcast,230,2013-09-03 04:35:00
9:55 PM,-9999,-9999,N/A,29.96,10.0,Calm,Calm,-,N/A,,Overcast,0,2013-09-03 04:55:00
10:15 PM,-9999,-9999,N/A,29.96,10.0,Calm,Calm,-,N/A,,Overcast,0,2013-09-03 05:15:00
10:35 PM,-9999,-9999,N/A,29.96,10.0,Calm,Calm,-,N/A,,Overcast,0,2013-09-03 05:35:00
10:55 PM,-9999,-9999,N/A,29.96,10.0,Calm,Calm,-,N/A,,Mostly Cloudy,0,2013-09-03 05:55:00
11:15 PM,-9999,-9999,N/A,29.96,10.0,Calm,Calm,-,N/A,,Mostly Cloudy,0,2013-09-03 06:15:00
11:35 PM,-9999,-9999,N/A,29.96,10.0,Calm,Calm,-,N/A,,Mostly Cloudy,0,2013-09-03 06:35:00
11:55 PM,-9999,-9999,N/A,29.96,10.0,Calm,Calm,-,N/A,,Scattered Clouds,0,2013-09-03 06:55:00